Weather History for Santa Monica, CA

Change the Weather History Date:

Tuesday, March 19, 2013

  Actual Average Record
Temperature  
Mean Temperature 55 °F -  
Max Temperature 62 °F 70 °F 89 °F (1960)
Min Temperature 50 °F 49 °F 40 °F (1937)
Degree Days  
Heating Degree Days 10    
Growing Degree Days 5 (Base 50)    
Moisture  
Dew Point 50 °F    
Average Humidity 84    
Maximum Humidity 94    
Minimum Humidity 72    
Precipitation  
Precipitation 0.00 in - - ()
Sea Level Pressure  
Sea Level Pressure 30.08 in    
Wind  
Wind Speed 1 mph (SW)    
Max Wind Speed 9 mph    
Max Gust Speed -    
Visibility 6 miles    
Events      
Averages and records for this station are not official NWS values.
T = Trace of Precipitation, MM = Missing Value Source: NWS Daily Summary

Daily Weather History Graph

Daily Weather History Graph

Search for Another Location

Airport:

Trip Planner

Search our weather history database for the weather conditions in past years. The results will help you decide how hot, cold, wet, or windy it might be!

Date:

Astronomy

Mar. 19, 2013 Rise Set
Actual Time 6:58 AM PDT 7:04 PM PDT
Civil Twilight 6:33 AM PDT 7:29 PM PDT
Nautical Twilight 6:04 AM PDT 7:59 PM PDT
Astronomical Twilight 5:34 AM PDT 8:28 PM PDT
Moon 12:07 PM PDT (3/19) 1:40 AM PDT (3/19)
Length of Visible Light 12h 56m
Length of Day
12h 06m
Waxing Crescent, 51% of the Moon is Illuminated
Mar 19
Waxing Crescent
Mar 27
Full
Apr 2
Last Quarter
Apr 10
New
Apr 18
First Quarter

Hourly Weather History & Observations

Time (PDT) Temp. Dew Point Humidity Pressure Visibility Wind Dir Wind Speed Gust Speed Precip Events Conditions
12:46 AM 53.6 °F 50.0 °F 88% 30.06 in 7.0 mi Calm Calm - N/A   Mostly Cloudy
12:51 AM 53.1 °F 50.0 °F 89% 30.07 in 6.0 mi Calm Calm - N/A   Mostly Cloudy
1:51 AM 54.0 °F 51.1 °F 90% 30.06 in 7.0 mi Calm Calm - N/A   Overcast
2:26 AM 53.6 °F 50.0 °F 88% 30.07 in 6.0 mi Calm Calm - N/A   Mostly Cloudy
2:33 AM 53.6 °F 51.8 °F 94% 30.07 in 7.0 mi Calm Calm - N/A   Scattered Clouds
2:51 AM 54.0 °F 51.1 °F 90% 30.07 in 7.0 mi Calm Calm - N/A   Clear
3:51 AM 52.0 °F 48.9 °F 89% 30.06 in 6.0 mi North 3.5 mph - N/A   Clear
4:36 AM 51.8 °F 48.2 °F 88% 30.05 in 5.0 mi Calm Calm - N/A   Mostly Cloudy
4:51 AM 51.1 °F 48.0 °F 89% 30.05 in 5.0 mi Calm Calm - N/A   Mostly Cloudy
5:03 AM 51.8 °F 48.2 °F 88% 30.05 in 5.0 mi Calm Calm - N/A   Mostly Cloudy
5:13 AM 51.8 °F 48.2 °F 88% 30.05 in 5.0 mi Calm Calm - N/A   Overcast
5:48 AM 50.0 °F 48.2 °F 94% 30.06 in 4.0 mi Calm Calm - N/A   Partly Cloudy
5:51 AM 50.0 °F 48.0 °F 93% 30.06 in 4.0 mi Calm Calm - N/A   Partly Cloudy
6:51 AM 52.0 °F 48.0 °F 86% 30.07 in 4.0 mi Calm Calm - N/A   Mostly Cloudy
6:57 AM 51.8 °F 48.2 °F 88% 30.08 in 4.0 mi Calm Calm - N/A   Scattered Clouds
7:26 AM 53.6 °F 48.2 °F 82% 30.09 in 3.0 mi Calm Calm - N/A   Mostly Cloudy
7:51 AM 54.0 °F 50.0 °F 86% 30.10 in 3.0 mi Calm Calm - N/A   Overcast
8:51 AM 55.9 °F 50.0 °F 80% 30.12 in 3.0 mi Variable 3.5 mph - N/A   Haze
9:51 AM 57.0 °F 50.0 °F 77% 30.12 in 4.0 mi Calm Calm - N/A   Haze
10:51 AM 59.0 °F 50.0 °F 72% 30.12 in 3.0 mi SSW 5.8 mph - N/A   Haze
11:51 AM 59.0 °F 50.0 °F 72% 30.11 in 5.0 mi SSW 5.8 mph - N/A   Haze
12:51 PM 59.0 °F 51.1 °F 75% 30.10 in 6.0 mi Variable 5.8 mph - N/A   Haze
1:51 PM 60.1 °F 51.1 °F 72% 30.08 in 7.0 mi SW 9.2 mph - N/A   Mostly Cloudy
2:51 PM 59.0 °F 51.1 °F 75% 30.08 in 7.0 mi SW 9.2 mph - N/A   Overcast
3:51 PM 57.9 °F 51.1 °F 78% 30.07 in 9.0 mi WSW 5.8 mph - N/A   Overcast
4:51 PM 57.0 °F 51.1 °F 81% 30.07 in 9.0 mi SW 8.1 mph - N/A   Overcast
5:51 PM 57.0 °F 51.1 °F 81% 30.06 in 9.0 mi WSW 5.8 mph - N/A   Overcast
6:51 PM 55.9 °F 51.1 °F 84% 30.07 in 9.0 mi SW 4.6 mph - N/A   Overcast
7:51 PM 55.9 °F 51.1 °F 84% 30.09 in 10.0 mi WSW 3.5 mph - N/A   Overcast
8:51 PM 55.9 °F 51.1 °F 84% 30.10 in 10.0 mi South 3.5 mph - N/A   Overcast
9:51 PM 55.9 °F 51.1 °F 84% 30.11 in 9.0 mi ENE 3.5 mph - N/A   Overcast
10:19 PM 55.4 °F 51.8 °F 88% 30.12 in 9.0 mi Calm Calm - N/A   Scattered Clouds
10:51 PM 57.0 °F 51.1 °F 81% 30.13 in 9.0 mi SW 5.8 mph - N/A   Clear
11:08 PM 55.4 °F 51.8 °F 88% 30.13 in 9.0 mi Calm Calm - N/A   Mostly Cloudy
11:19 PM 55.4 °F 51.8 °F 88% 30.12 in 9.0 mi Calm Calm - N/A   Scattered Clouds
11:51 PM 55.0 °F 51.1 °F 86% 30.11 in 8.0 mi Calm Calm - N/A   Partly Cloudy